GW4835 Weather Reports


time (UTC)temp
F
wind
direction
speed
knots
gust
knots
rain 1hr
in
rain 24hr
in
rain mn
in
humidity
%
barometer
mb
20260507135235 52 357 0.9 5.2 0.00 0.00 0.00 56 1018.6
20260507134731 52 26 0.0 0.9 0.00 0.00 0.00 64 1018.8
20260507134228 52 349 2.6 5.2 0.00 0.00 0.00 61 1018.4
20260507133724 51 17 0.9 2.6 0.00 0.00 0.00 63 1018.7
20260507133221 51 29 0.0 0.9 0.00 0.00 0.00 66 1018.7
20260507132718 50 9 1.7 2.6 0.00 0.00 0.00 69 1018.8
20260507132215 50 5 0.9 3.5 0.00 0.00 0.00 70 1018.8
20260507131711 50 1 0.9 2.6 0.00 0.00 0.00 71 1018.8
20260507131209 50 353 0.9 3.5 0.00 0.00 0.00 73 1018.7
20260507130705 49 5 0.9 1.7 0.00 0.00 0.00 75 1018.8
20260507130203 49 354 0.9 1.7 0.00 0.00 0.00 75 1018.6
20260507125702 48 338 3.5 3.5 0.00 0.00 0.00 77 1018.7
20260507125159 47 0 1.7 3.5 0.00 0.00 0.00 81 1018.9
20260507124655 48 2 1.7 2.6 0.00 0.00 0.00 83 1018.8
20260507124153 46 11 0.9 2.6 0.00 0.00 0.00 84 1018.7
20260507123651 47 5 0.0 0.0 0.00 0.00 0.00 90 1018.8
20260507123148 46 8 0.0 1.7 0.00 0.00 0.00 96 1018.9
20260507122643 46 12 0.0 0.9 0.00 0.00 0.00 99 1018.8
20260507122139 45 14 0.0 0.9 0.00 0.00 0.00 99 1019.0
20260507121635 45 9 0.0 1.7 0.00 0.00 0.00 99 1018.8
20260507121131 45 14 0.0 0.0 0.00 0.00 0.00 99 1018.7
20260507120628 45 0 0.0 0.0 0.00 0.00 0.00 99 1018.7
20260507120124 43 0 0.0 0.0 0.00 0.00 0.00 99 1018.8
20260507115621 42 0 0.0 0.0 0.00 0.00 0.00 99 1018.7
20260507115116 42 0 0.0 0.0 0.00 0.00 0.00 99 1018.4
20260507114612 43 359 0.0 0.0 0.00 0.00 0.00 99 1018.6
20260507114110 42 0 0.0 0.0 0.00 0.00 0.00 99 1018.9
20260507113607 42 0 0.0 0.0 0.00 0.00 0.00 99 1018.8
20260507113104 42 359 0.0 0.0 0.00 0.00 0.00 99 1018.9
20260507112602 42 359 0.0 0.0 0.00 0.00 0.00 99 1018.8
20260507112058 41 359 0.0 0.0 0.00 0.00 0.00 99 1018.8
20260507111555 40 359 0.0 0.0 0.00 0.00 0.00 99 1018.3
20260507111052 38 359 0.0 0.0 0.00 0.00 0.00 99 1018.3
20260507110548 37 359 0.0 0.0 0.00 0.00 0.00 99 1018.2
20260507110045 37 359 0.0 0.0 0.00 0.00 0.00 99 1018.3
20260507105542 37 359 0.0 0.0 0.00 0.00 0.00 99 1018.3
20260507105038 37 359 0.0 0.0 0.00 0.00 0.00 99 1017.9
20260507104535 37 359 0.0 0.0 0.00 0.00 0.00 99 1018.2
20260507104032 36 359 0.0 0.0 0.00 0.00 0.00 99 1018.1
20260507103528 37 359 0.0 0.0 0.00 0.00 0.00 99 1018.0
20260507103025 37 359 0.0 0.0 0.00 0.00 0.00 99 1018.0
20260507102521 38 359 0.0 0.0 0.00 0.00 0.00 99 1018.0
20260507102017 39 359 0.0 0.0 0.00 0.00 0.00 99 1017.9
20260507101513 38 359 0.0 0.0 0.00 0.00 0.00 99 1018.0
20260507101010 37 359 0.0 0.0 0.00 0.00 0.00 99 1017.9
20260507100507 37 359 0.0 0.0 0.00 0.00 0.00 99 1017.9
20260507100005 37 359 0.0 0.0 0.00 0.00 0.00 99 1018.0
20260507095503 37 359 0.0 0.0 0.00 0.00 0.00 99 1018.0
20260507094959 37 359 0.0 0.0 0.00 0.00 0.00 99 1018.2
20260507094455 37 359 0.0 0.0 0.00 0.00 0.00 99 1018.3
20260507093952 37 359 0.0 0.0 0.00 0.00 0.00 99 1018.2
20260507093450 37 359 0.0 0.0 0.00 0.00 0.00 99 1018.0
20260507092948 37 359 0.0 0.0 0.00 0.00 0.00 99 1017.8
20260507092444 38 359 0.0 0.0 0.00 0.00 0.00 99 1018.0
20260507091941 38 359 0.0 0.0 0.00 0.00 0.00 99 1017.9
20260507091438 38 359 0.0 0.0 0.00 0.00 0.00 99 1017.8
20260507090934 38 359 0.0 0.0 0.00 0.00 0.00 99 1017.8
20260507090430 38 359 0.0 0.0 0.00 0.00 0.00 99 1017.7
20260507085926 38 359 0.0 0.0 0.00 0.00 0.00 99 1017.9
20260507085424 38 359 0.0 0.0 0.00 0.00 0.00 99 1017.6
20260507084921 38 359 0.0 0.0 0.00 0.00 0.00 99 1017.7
20260507084418 38 359 0.0 0.0 0.00 0.00 0.00 99 1017.8
20260507083915 38 359 0.0 0.0 0.00 0.00 0.00 99 1017.7
20260507083411 38 359 0.0 0.0 0.00 0.00 0.00 99 1017.6
20260507082907 38 359 0.0 0.0 0.00 0.00 0.00 99 1017.8
20260507082403 38 359 0.0 0.0 0.00 0.00 0.00 99 1017.6
20260507081900 39 359 0.0 0.0 0.00 0.00 0.00 99 1017.6
20260507081356 39 359 0.0 0.0 0.00 0.00 0.00 99 1017.6
20260507080853 39 359 0.0 0.0 0.00 0.00 0.00 99 1017.7
20260507080349 40 359 0.0 0.0 0.00 0.00 0.00 99 1017.6
20260507075845 40 359 0.0 0.0 0.00 0.00 0.00 99 1017.6
20260507075341 41 359 0.0 0.0 0.00 0.00 0.00 99 1017.4
20260507074837 41 359 0.0 0.0 0.00 0.00 0.00 99 1017.6
20260507074335 40 359 0.0 0.0 0.00 0.00 0.00 99 1017.4
20260507073832 41 359 0.0 0.0 0.00 0.00 0.00 99 1017.7
20260507073329 41 359 0.0 0.0 0.00 0.00 0.00 99 1017.6
20260507072826 40 359 0.0 0.0 0.00 0.00 0.00 99 1017.7
20260507072324 40 359 0.0 0.0 0.00 0.00 0.00 99 1017.6
20260507071821 40 359 0.0 0.0 0.00 0.00 0.00 99 1017.7
20260507071318 40 359 0.0 0.0 0.00 0.00 0.00 99 1017.7
20260507070814 41 359 0.0 0.0 0.00 0.00 0.00 99 1017.6
20260507070311 40 359 0.0 0.0 0.00 0.00 0.00 99 1017.6
20260507065808 41 359 0.0 0.0 0.00 0.00 0.00 99 1017.8
20260507065306 41 359 0.0 0.0 0.00 0.00 0.00 99 1017.8
20260507064802 41 359 0.0 0.0 0.00 0.00 0.00 99 1017.7
20260507064301 41 359 0.0 0.0 0.00 0.00 0.00 99 1017.9
20260507063758 41 359 0.0 0.0 0.00 0.00 0.00 99 1017.7
20260507063254 41 359 0.0 0.0 0.00 0.00 0.00 99 1017.7
20260507062751 42 359 0.0 0.0 0.00 0.00 0.00 99 1017.7
20260507062249 42 359 0.0 0.0 0.00 0.00 0.00 99 1017.7
20260507061747 43 359 0.0 0.0 0.00 0.00 0.00 99 1017.8
20260507061244 42 359 0.0 0.0 0.00 0.00 0.00 99 1017.9
20260507060742 42 359 0.0 0.0 0.00 0.00 0.00 99 1017.8
20260507060238 43 359 0.0 0.0 0.00 0.00 0.00 99 1017.8
20260507055735 42 359 0.0 0.0 0.00 0.00 0.00 99 1017.7
20260507055230 42 359 0.0 0.0 0.00 0.00 0.00 99 1017.9
20260507054727 42 359 0.0 0.0 0.00 0.00 0.00 99 1017.7
20260507054224 43 359 0.0 0.0 0.00 0.00 0.00 99 1017.7
20260507053721 43 359 0.0 0.0 0.00 0.00 0.00 99 1018.0
20260507053219 42 359 0.0 0.0 0.00 0.00 0.00 99 1018.0
20260507052718 42 359 0.0 0.0 0.00 0.00 0.00 99 1017.7
20260507052213 42 359 0.0 0.0 0.00 0.00 0.00 99 1017.6
20260507051712 42 359 0.0 0.0 0.00 0.00 0.00 99 1017.8
20260507051208 43 359 0.0 0.0 0.00 0.00 0.00 98 1017.9
20260507050704 44 359 0.0 0.0 0.00 0.00 0.00 98 1017.8
20260507050201 43 359 0.0 0.0 0.00 0.00 0.00 99 1018.1
20260507045658 43 359 0.0 0.0 0.00 0.00 0.00 98 1018.0
20260507045156 43 359 0.0 0.0 0.00 0.00 0.00 98 1018.2
20260507044652 43 359 0.0 0.0 0.00 0.00 0.00 98 1018.1
20260507044148 43 359 0.0 0.0 0.00 0.00 0.00 98 1018.0
20260507043644 44 359 0.0 0.0 0.00 0.00 0.00 98 1018.0
20260507043142 44 359 0.0 0.0 0.00 0.00 0.00 97 1017.9
20260507042638 45 359 0.0 0.0 0.00 0.00 0.00 98 1018.0
20260507042133 45 359 0.0 0.0 0.00 0.00 0.00 98 1018.0
20260507041630 45 359 0.0 0.0 0.00 0.00 0.00 97 1018.0
20260507041127 44 359 0.0 0.0 0.00 0.00 0.00 97 1018.0
20260507040624 44 359 0.0 0.0 0.00 0.00 0.00 96 1017.8
20260507040120 44 359 0.0 0.0 0.00 0.00 0.00 96 1017.7
20260507035616 45 359 0.0 0.0 0.00 0.54 0.54 96 1017.7
20260507035112 46 359 0.0 0.0 0.00 0.54 0.54 96 1017.7
20260507034609 46 359 0.0 0.0 0.00 0.54 0.54 96 1017.9
20260507034107 45 359 0.0 0.0 0.00 0.54 0.54 95 1017.9
20260507033605 45 359 0.0 0.0 0.00 0.54 0.54 95 1018.1
20260507033102 46 359 0.0 0.0 0.00 0.54 0.54 95 1017.9
20260507032559 47 359 0.0 0.0 0.00 0.54 0.54 95 1018.0
20260507032055 46 359 0.0 0.0 0.00 0.54 0.54 94 1017.9
20260507031552 46 359 0.0 0.0 0.00 0.54 0.54 94 1018.0
20260507031049 46 359 0.0 0.0 0.00 0.54 0.54 94 1018.0
20260507030545 46 359 0.0 0.0 0.00 0.54 0.54 93 1017.9
20260507030043 47 359 0.0 0.0 0.00 0.54 0.54 93 1018.2
20260507025540 47 359 0.0 0.0 0.00 0.54 0.54 93 1017.9
20260507025038 47 358 0.0 0.0 0.00 0.54 0.54 92 1018.1
20260507024535 46 358 0.0 0.0 0.00 0.54 0.54 91 1018.1
20260507024032 47 358 0.0 0.0 0.00 0.54 0.54 89 1017.9
20260507023527 47 358 0.0 0.0 0.00 0.54 0.54 89 1018.2
20260507023026 47 358 0.0 0.0 0.00 0.54 0.54 88 1017.9
20260507022522 48 358 0.0 0.0 0.00 0.54 0.54 89 1018.1
20260507022017 48 358 0.0 0.0 0.00 0.54 0.54 89 1017.9
20260507021514 49 358 0.0 0.0 0.00 0.54 0.54 89 1018.1
20260507021010 49 358 0.0 0.0 0.00 0.54 0.54 89 1017.8
20260507020508 48 358 0.0 0.0 0.00 0.54 0.54 87 1017.7
20260507020004 49 358 0.0 0.0 0.00 0.54 0.54 87 1017.7
20260507015503 49 358 0.0 0.0 0.00 0.54 0.54 86 1017.7
20260507015000 49 357 0.0 0.0 0.00 0.54 0.54 88 1017.9
20260507014456 49 357 0.0 0.0 0.00 0.54 0.54 87 1017.4
20260507013952 49 357 0.0 0.0 0.00 0.54 0.54 87 1017.4
20260507013449 49 357 0.0 0.0 0.00 0.54 0.54 86 1017.5
20260507012946 49 357 0.0 0.0 0.00 0.54 0.54 87 1017.5
20260507012443 49 357 0.0 0.0 0.00 0.54 0.54 86 1017.4
20260507011940 50 357 0.0 0.0 0.00 0.54 0.54 85 1017.2
20260507011437 50 357 0.0 0.0 0.00 0.54 0.54 86 1017.3
20260507010937 50 357 0.0 0.0 0.00 0.54 0.54 85 1017.5
20260507010432 50 357 0.0 0.0 0.00 0.54 0.54 84 1017.5
20260507005929 51 357 0.0 0.0 0.00 0.54 0.54 83 1017.5
20260507005426 51 357 0.0 0.0 0.00 0.54 0.54 83 1017.2
20260507004918 52 357 0.0 0.0 0.00 0.54 0.54 82 1017.2
20260507004415 52 357 0.0 0.0 0.00 0.54 0.54 82 1017.2
20260507003912 52 357 0.0 0.0 0.00 0.54 0.54 81 1017.2
20260507003407 52 357 0.0 0.0 0.00 0.54 0.54 78 1017.2
20260507002902 53 357 0.0 0.0 0.00 0.54 0.54 78 1017.3
20260507002358 53 357 0.0 0.0 0.00 0.54 0.54 76 1017.0
20260507001856 53 357 0.0 0.0 0.00 0.54 0.54 73 1017.0
20260507001352 54 357 0.0 0.0 0.00 0.54 0.54 66 1017.1
20260507000850 54 357 0.0 0.0 0.00 0.54 0.54 65 1016.8
20260507000345 55 357 0.0 0.0 0.00 0.54 0.54 64 1016.9
20260506235842 55 356 0.0 0.0 0.00 0.54 0.54 67 1016.7
20260506235339 55 356 0.0 0.9 0.00 0.54 0.54 65 1016.6
20260506234834 55 0 0.9 0.9 0.00 0.54 0.54 63 1016.8
20260506234332 56 359 0.0 0.9 0.00 0.54 0.54 63 1016.8
20260506233830 56 356 0.9 0.9 0.00 0.54 0.54 63 1016.7
20260506233325 56 354 1.7 2.6 0.00 0.54 0.54 62 1016.7
20260506232822 56 352 1.7 3.5 0.00 0.54 0.54 61 1016.7
20260506232317 56 1 0.0 7.0 0.00 0.54 0.54 61 1016.6
20260506231814 56 8 0.9 5.2 0.00 0.54 0.54 60 1016.4
20260506231312 56 26 1.7 3.5 0.00 0.54 0.54 61 1016.5
20260506230810 56 345 2.6 3.5 0.00 0.54 0.54 59 1016.3
20260506230306 57 357 0.9 1.7 0.00 0.54 0.54 61 1016.4
20260506225802 57 349 0.9 1.7 0.00 0.54 0.54 57 1016.5
20260506225301 57 354 0.9 3.5 0.00 0.54 0.54 62 1016.6
20260506224757 57 356 2.6 2.6 0.00 0.54 0.54 58 1016.6
20260506224254 57 1 0.9 1.7 0.00 0.54 0.54 61 1016.5
20260506223750 57 7 1.7 2.6 0.00 0.54 0.54 58 1016.6
20260506223246 57 347 1.7 2.6 0.00 0.54 0.54 58 1016.6
20260506222743 57 355 1.7 2.6 0.00 0.54 0.54 56 1016.8
20260506222238 57 355 1.7 5.2 0.00 0.54 0.54 57 1016.9
20260506221736 57 4 0.9 1.7 0.00 0.54 0.54 58 1016.9
20260506221234 57 1 0.9 2.6 0.00 0.54 0.54 60 1017.0
20260506220726 57 1 1.7 2.6 0.00 0.54 0.54 55 1017.1
20260506220226 57 7 1.7 2.6 0.00 0.54 0.54 55 1016.8
20260506215722 57 333 1.7 2.6 0.00 0.54 0.54 56 1017.0
20260506215218 57 1 1.7 5.2 0.00 0.54 0.54 58 1016.9
20260506214715 57 24 0.9 1.7 0.00 0.54 0.54 58 1016.9
20260506214212 57 341 1.7 3.5 0.00 0.54 0.54 56 1016.8
20260506213711 57 357 1.7 2.6 0.00 0.54 0.54 59 1016.8
20260506213208 57 356 0.9 3.5 0.00 0.54 0.54 59 1016.8
20260506212705 58 11 2.6 7.0 0.00 0.54 0.54 56 1016.5
20260506212200 58 325 2.6 3.5 0.00 0.54 0.54 57 1016.5
20260506211655 58 5 1.7 2.6 0.00 0.54 0.54 58 1016.4
20260506211152 58 357 0.9 2.6 0.00 0.54 0.54 57 1016.4
20260506210649 58 358 1.7 3.5 0.00 0.54 0.54 58 1016.4
20260506210146 58 326 0.9 1.7 0.00 0.54 0.54 58 1016.2
20260506205644 58 1 1.7 3.5 0.00 0.54 0.54 59 1016.3
20260506205143 58 356 0.0 3.5 0.00 0.54 0.54 64 1016.4
20260506204642 58 342 3.5 3.5 0.00 0.54 0.54 59 1016.3
20260506204138 58 357 0.9 1.7 0.00 0.54 0.54 58 1016.2
20260506203637 58 357 3.5 6.1 0.00 0.54 0.54 55 1016.6
20260506203133 58 347 3.5 7.0 0.00 0.54 0.54 56 1016.2
20260506202631 58 354 0.9 2.6 0.00 0.54 0.54 57 1016.3
20260506202127 58 337 3.5 3.5 0.00 0.54 0.54 56 1016.3
20260506201624 57 336 1.7 3.5 0.00 0.54 0.54 58 1016.4
20260506201121 57 1 0.9 3.5 0.00 0.54 0.54 60 1016.4
20260506200617 57 334 2.6 5.2 0.00 0.54 0.54 56 1016.5
20260506200114 57 37 1.7 5.2 0.00 0.54 0.54 55 1016.6
20260506195611 58 344 5.2 7.0 0.00 0.54 0.54 53 1016.5
20260506195107 58 0 2.6 2.6 0.00 0.54 0.54 54 1016.2
20260506194605 58 1 1.7 2.6 0.00 0.54 0.54 54 1016.3
20260506194101 58 350 1.7 3.5 0.00 0.54 0.54 53 1016.1
20260506193559 59 5 3.5 3.5 0.00 0.54 0.54 51 1016.3
20260506193056 58 359 0.9 2.6 0.00 0.54 0.54 57 1016.0
20260506192552 59 7 2.6 2.6 0.00 0.54 0.54 56 1015.8
20260506192048 59 306 3.5 6.1 0.00 0.54 0.54 56 1016.0
20260506191545 59 353 3.5 5.2 0.00 0.54 0.54 53 1016.2
20260506191041 59 345 1.7 3.5 0.00 0.54 0.54 55 1016.1
20260506190538 59 358 1.7 7.0 0.00 0.54 0.54 53 1016.1
20260506190036 60 299 5.2 7.0 0.00 0.54 0.54 54 1016.0
20260506185533 59 330 3.5 7.0 0.00 0.54 0.54 55 1016.0
20260506185029 60 4 1.7 6.1 0.00 0.54 0.54 56 1016.1
20260506184527 61 5 3.5 7.0 0.00 0.54 0.54 56 1015.9
20260506184024 61 346 2.6 5.2 0.00 0.54 0.54 54 1015.7
20260506183519 60 5 0.9 2.6 0.00 0.54 0.54 56 1015.8
20260506183016 60 347 5.2 6.1 0.00 0.54 0.54 55 1015.9
20260506182514 60 22 1.7 1.7 0.00 0.54 0.54 53 1015.9
20260506182010 60 354 1.7 7.0 0.00 0.54 0.54 57 1016.1
20260506181508 60 322 5.2 6.1 0.00 0.54 0.54 56 1016.0
20260506181005 60 327 4.3 6.1 0.00 0.54 0.54 55 1016.2
20260506180502 59 341 2.6 5.2 0.00 0.54 0.54 57 1015.9
20260506175958 59 30 2.6 2.6 0.00 0.54 0.54 58 1016.2
20260506175455 60 344 1.7 2.6 0.00 0.54 0.54 62 1016.2
20260506174951 59 304 2.6 6.1 0.00 0.54 0.54 60 1016.2
20260506174450 59 353 1.7 5.2 0.00 0.54 0.54 60 1016.3
20260506173946 59 358 1.7 2.6 0.00 0.54 0.54 56 1016.3
20260506173443 60 18 0.9 1.7 0.00 0.54 0.54 63 1016.3
20260506172940 60 2 1.7 2.6 0.00 0.54 0.54 62 1016.2
20260506172437 59 342 1.7 5.2 0.00 0.54 0.54 63 1016.2
20260506171934 60 351 1.7 1.7 0.00 0.54 0.54 63 1016.1
20260506171431 59 353 1.7 2.6 0.00 0.54 0.54 63 1016.5
20260506170929 58 16 6.1 7.8 0.00 0.54 0.54 59 1016.4
20260506170425 58 331 1.7 2.6 0.00 0.54 0.54 64 1016.4
20260506165924 57 355 1.7 1.7 0.00 0.54 0.54 67 1016.5
20260506165422 57 4 0.9 1.7 0.00 0.54 0.54 65 1016.5
20260506164918 58 357 1.7 2.6 0.00 0.54 0.54 63 1016.3
20260506164415 57 26 1.7 2.6 0.00 0.54 0.54 65 1016.4
20260506163913 57 338 3.5 6.1 0.00 0.54 0.54 60 1016.6
20260506163407 57 14 1.7 7.0 0.00 0.54 0.54 63 1016.5
20260506162902 57 339 2.6 3.5 0.00 0.54 0.54 64 1016.5
20260506162400 57 352 1.7 3.5 0.00 0.54 0.54 64 1016.5
20260506161857 56 338 1.7 3.5 0.00 0.54 0.54 63 1016.5
20260506161355 57 15 0.9 5.2 0.00 0.54 0.54 66 1016.5
20260506160853 55 353 1.7 6.1 0.00 0.54 0.54 70 1016.2
20260506160349 56 301 4.3 7.0 0.00 0.54 0.54 63 1016.4
20260506155848 56 12 3.5 6.1 0.00 0.54 0.54 63 1016.1
20260506155345 55 1 0.9 3.5 0.00 0.54 0.54 63 1016.0
20260506153502 55 343 6.1 7.0 0.00 0.54 0.54 66 1016.5
20260506152959 54 24 0.9 3.5 0.00 0.54 0.54 67 1016.5
20260506152456 54 325 5.2 7.0 0.00 0.54 0.54 66 1016.5
20260506151954 54 341 1.7 2.6 0.00 0.54 0.54 72 1016.4
20260506151451 54 342 1.7 3.5 0.00 0.54 0.54 70 1016.1
20260506150949 53 318 2.6 3.5 0.00 0.54 0.54 70 1016.0
20260506150444 52 27 0.9 5.2 0.00 0.54 0.54 72 1016.2
20260506145942 53 335 4.3 9.6 0.00 0.54 0.54 69 1015.7
20260506145438 53 357 1.7 5.2 0.00 0.54 0.54 74 1015.7
20260506144936 52 343 1.7 6.1 0.00 0.54 0.54 78 1015.5
20260506144432 52 334 2.6 5.2 0.00 0.54 0.54 76 1015.4
20260506143930 51 346 1.7 2.6 0.00 0.54 0.54 78 1015.6
20260506143427 51 359 2.6 5.2 0.00 0.54 0.54 80 1015.2
20260506142925 51 328 3.5 7.0 0.00 0.54 0.54 80 1015.4
20260506142423 51 9 1.7 5.2 0.00 0.54 0.54 83 1015.5
20260506141921 50 4 0.0 3.5 0.00 0.54 0.54 86 1015.4
20260506141419 50 3 2.6 3.5 0.00 0.54 0.54 85 1015.5
20260506140917 50 337 3.5 3.5 0.00 0.54 0.54 86 1015.3
20260506140413 50 347 2.6 2.6 0.00 0.54 0.54 88 1015.3
20260506135911 50 3 1.7 3.5 0.00 0.54 0.54 89 1015.3